Location: Bothwell
(42.3833°S, 147.0000°E)
Time: 20:46:16
(UTC+11:00)

Gurwin Techsat 1B - Pass Details

Date: 27 September 2022
Orbit: 811 x 814 km, 98.8° (Epoch: 26 November)

Event Time Altitude Azimuth Distance (km) Brightness Sun altitude
Exits shadow 02:09:01 14° 196° (SSW) 2,179 11.1 -37.8°
Drops below altitude 10° 02:09:40 10° 196° (SSW) 2,434 11.4 -37.8°
Sets 02:12:02 0° 194° (SSW) 3,373 12.2 -37.5°
